Temperature
0 1 1 1 1 0 -0 -1 -1 -1 -2 -1 -2 -3 -2 -2 -2 -3 -3 -3 -4 -4 -4 -5 -5 -5 -5 -5 -5 -5 -5 -6 -6 -6 -6 -6 -5 -5 -5 -6 -6 -6 -5 -5
-0 0 -0 -0 0 -0 -0 -1 -1 -2 -2 -2 -2 -2 -3 -2 -3 -3 -3 -4 -4 -4 -5 -5 -5 -5 -5 -6 -6 -6 -6 -6 -6 -6 -6 -6 -6 -6 -6 -6 -6 -6 -6 -6
-1 -1 -0 -1 -1 -1 -2 -2 -2 -2 -2 -3 -4 -4 -3 -3 -3 -3 -4 -4 -5 -5 -5 -6 -6 -6 -6 -6 -6 -6 -6 -7 -7 -7 -7 -7 -7 -7 -7 -7 -7 -7 -6 -6
-2 -2 -1 -0 -2 -2 -3 -3 -4 -4 -4 -4 -4 -3 -3 -3 -4 -4 -4 -4 -5 -5 -6 -6 -6 -6 -7 -7 -7 -7 -7 -7 -7 -7 -7 -7 -7 -7 -7 -7 -7 -7 -7 -7
-3 -3 -2 -2 -2 -3 -3 -4 -5 -5 -5 -4 -4 -4 -4 -4 -4 -4 -5 -5 -5 -6 -6 -6 -7 -7 -7 -7 -7 -7 -7 -7 -8 -8 -8 -8 -8 -8 -8 -8 -8 -8 -7 -7
-3 -2 -2 -1 -3 -3 -3 -4 -4 -4 -5 -5 -5 -6 -5 -4 -5 -5 -5 -6 -6 -6 -7 -7 -7 -7 -8 -8 -8 -8 -8 -8 -8 -8 -8 -8 -8 -8 -8 -8 -8 -8 -8 -8
-4 -3 -3 -4 -4 -3 -3 -3 -3 -3 -4 -5 -6 -5 -4 -5 -5 -6 -6 -6 -7 -7 -7 -7 -8 -8 -8 -8 -8 -8 -8 -8 -8 -8 -8 -8 -8 -8 -9 -9 -9 -9 -8 -8
-4 -4 -3 -4 -5 -4 -4 -3 -3 -3 -3 -4 -4 -5 -5 -6 -6 -6 -7 -7 -7 -7 -8 -8 -8 -8 -8 -8 -9 -9 -9 -9 -9 -9 -9 -9 -9 -9 -9 -9 -9 -9 -9 -9
-4 -3 -4 -4 -4 -3 -3 -3 -3 -3 -4 -4 -5 -5 -6 -6 -7 -7 -7 -7 -8 -8 -8 -8 -9 -9 -9 -9 -9 -9 -9 -9 -9 -9 -9 -9 -9 -9 -9 -10 -10 -10 -10 -10
-6 -5 -5 -4 -3 -3 -3 -3 -4 -4 -4 -5 -5 -6 -7 -7 -7 -8 -8 -8 -8 -8 -9 -9 -9 -9 -9 -10 -10 -10 -10 -10 -10 -10 -10 -10 -10 -10 -10 -10 -10 -10 -10 -10
-6 -6 -5 -4 -4 -4 -4 -4 -5 -5 -5 -6 -6 -7 -7 -8 -8 -8 -8 -8 -9 -9 -9 -9 -9 -10 -10 -10 -10 -10 -10 -10 -10 -10 -10 -10 -10 -10 -11 -10 -11 -11 -11 -11
-5 -4 -5 -4 -4 -4 -5 -5 -5 -6 -6 -7 -7 -8 -8 -8 -8 -9 -9 -9 -9 -9 -10 -10 -10 -10 -10 -10 -11 -11 -11 -11 -11 -11 -11 -11 -11 -11 -11 -11 -11 -11 -11 -11
-3 -4 -4 -4 -5 -5 -5 -6 -6 -7 -7 -7 -8 -8 -8 -9 -9 -9 -9 -9 -10 -10 -10 -10 -10 -10 -11 -11 -11 -11 -11 -12 -12 -12 -12 -12 -12 -11 -11 -11 -11 -11 -11 -11
-4 -4 -5 -5 -6 -6 -6 -7 -7 -7 -8 -8 -8 -9 -9 -9 -9 -9 -10 -10 -10 -10 -11 -11 -11 -11 -11 -11 -12 -12 -12 -12 -12 -12 -12 -12 -12 -12 -12 -12 -12 -11 -11 -11
-5 -5 -5 -6 -6 -7 -7 -7 -8 -8 -8 -9 -9 -9 -9 -10 -10 -10 -10 -10 -11 -11 -11 -11 -11 -11 -12 -12 -12 -12 -12 -12 -12 -13 -13 -13 -13 -13 -12 -12 -12 -12 -12 -11
-6 -6 -6 -7 -7 -7 -8 -8 -8 -8 -9 -9 -9 -10 -10 -10 -10 -10 -11 -11 -11 -11 -11 -12 -12 -12 -12 -12 -12 -13 -13 -13 -13 -13 -13 -13 -13 -13 -13 -13 -13 -13 -12 -12
-7 -7 -7 -7 -8 -8 -8 -9 -9 -9 -9 -10 -10 -10 -10 -11 -11 -11 -11 -11 -12 -12 -12 -12 -12 -12 -13 -13 -13 -13 -13 -13 -13 -13 -13 -13 -13 -13 -13 -13 -13 -13 -13 -12
-7 -7 -7 -8 -8 -8 -9 -9 -9 -10 -10 -10 -10 -11 -11 -11 -11 -11 -12 -12 -12 -12 -12 -13 -13 -13 -13 -13 -13 -13 -14 -14 -14 -14 -14 -13 -14 -14 -14 -13 -13 -13 -13 -13
-8 -8 -8 -8 -8 -9 -9 -9 -10 -10 -10 -11 -11 -11 -11 -11 -12 -12 -12 -12 -13 -13 -13 -13 -13 -13 -13 -13 -14 -14 -14 -14 -14 -14 -14 -14 -14 -14 -14 -14 -14 -14 -13 -13
-8 -9 -9 -9 -9 -9 -9 -10 -10 -10 -11 -11 -11 -11 -12 -12 -12 -12 -13 -13 -13 -13 -13 -13 -14 -14 -14 -14 -14 -14 -14 -14 -14 -14 -14 -14 -14 -14 -14 -14 -14 -14 -14 -14
-9 -9 -9 -9 -9 -10 -10 -10 -10 -11 -11 -11 -12 -12 -12 -12 -13 -13 -13 -13 -13 -14 -14 -14 -14 -14 -14 -14 -14 -14 -14 -14 -14 -14 -15 -15 -15 -14 -14 -14 -14 -14 -14 -14
-9 -9 -9 -10 -10 -10 -11 -11 -11 -11 -12 -12 -12 -12 -13 -13 -13 -13 -13 -14 -14 -14 -14 -14 -14 -14 -15 -15 -15 -15 -15 -15 -15 -15 -15 -15 -15 -15 -15 -15 -15 -15 -14 -14
-9 -10 -10 -10 -10 -11 -11 -11 -11 -12 -12 -12 -12 -13 -13 -13 -14 -14 -14 -14 -14 -14 -15 -15 -15 -15 -15 -15 -15 -15 -15 -15 -15 -15 -15 -15 -15 -15 -15 -15 -15 -15 -15 -14
-10 -10 -10 -11 -11 -11 -11 -12 -12 -12 -12 -13 -13 -13 -13 -14 -14 -14 -14 -14 -15 -15 -15 -15 -15 -15 -15 -15 -15 -15 -15 -15 -15 -15 -15 -15 -15 -15 -15 -15 -15 -15 -15 -15
-10 -11 -11 -11 -12 -12 -12 -12 -12 -12 -13 -13 -13 -14 -14 -14 -14 -14 -14 -14 -15 -15 -15 -15 -15 -15 -15 -15 -15 -15 -16 -16 -16 -16 -16 -16 -16 -16 -15 -15 -15 -15 -15 -15
-11 -11 -12 -12 -12 -12 -13 -13 -13 -13 -13 -13 -14 -14 -14 -14 -14 -14 -15 -15 -15 -15 -15 -15 -15 -15 -16 -16 -16 -16 -16 -16 -16 -16 -16 -16 -16 -16 -16 -16 -15 -15 -15 -15
-12 -12 -12 -12 -13 -13 -13 -13 -13 -14 -14 -14 -14 -14 -14 -14 -14 -15 -15 -15 -15 -15 -15 -16 -16 -16 -16 -16 -16 -16 -16 -16 -16 -16 -16 -16 -16 -16 -16 -16 -16 -15 -15 -15
Wind_Speed
6 5 4 6 8 8 10 9 9 9 8 9 7 6 5 4 3 3 3 3 3 3 4 4 4 5 5 5 5 5 6 6 7 7 7 6 7 7 7 7 8 8 8 9
4 3 4 6 9 10 10 8 9 8 9 6 3 2 3 3 3 4 4 4 4 4 4 5 5 5 6 5 6 5 6 7 7 7 7 7 7 7 7 8 8 8 8 9
4 3 4 7 8 8 5 5 6 9 8 2 2 3 3 3 3 4 4 4 4 4 4 5 5 5 6 6 6 6 6 7 7 7 7 7 8 8 8 8 8 8 9 9
2 2 6 6 1 4 5 4 5 4 3 3 3 2 2 3 3 3 4 4 4 4 5 5 5 5 6 5 6 6 6 7 7 8 8 8 7 8 8 8 8 8 9 9
2 3 8 6 2 3 4 5 4 6 4 2 1 2 3 2 2 2 3 3 3 4 4 5 5 6 5 6 6 6 7 8 8 8 9 8 8 8 8 8 8 8 8 9
4 4 7 5 1 1 3 4 3 5 5 3 2 1 4 2 1 2 2 2 3 3 4 5 5 5 5 6 6 7 8 9 8 9 9 8 9 8 7 7 8 9 9 8
6 6 8 5 2 3 3 6 2 4 4 4 5 5 3 1 2 2 2 3 3 3 4 5 5 5 6 6 7 8 9 9 9 9 9 8 7 7 7 8 8 8 9 9
5 6 8 3 5 6 6 1 2 2 3 4 4 2 2 2 2 2 3 3 3 4 5 5 5 5 6 8 8 8 8 9 9 9 8 7 7 7 7 7 7 8 8 9
8 7 2 4 5 3 3 3 2 2 2 3 3 3 2 2 3 3 3 4 3 4 5 6 5 5 6 8 8 8 8 9 9 9 8 8 7 7 7 6 6 7 7 8
4 5 3 3 3 1 2 3 2 2 2 3 3 3 2 3 3 3 4 4 4 4 5 6 6 6 6 8 8 8 8 9 8 8 8 7 6 6 6 5 6 7 7 8
4 4 2 3 4 4 2 2 1 1 1 2 2 2 2 3 3 4 4 4 4 4 6 7 7 7 8 7 7 8 8 8 8 8 8 7 6 5 6 6 7 8 7 7
7 6 5 4 2 3 3 2 2 1 1 0 1 2 2 3 3 3 4 4 5 5 6 7 7 7 7 7 7 7 8 8 7 7 7 7 7 8 10 10 13 14 13 12
4 2 3 2 1 1 2 2 1 2 2 1 1 2 2 3 3 3 4 5 5 6 6 7 7 8 8 7 7 7 7 8 7 7 7 7 7 7 8 10 12 13 13 14
2 3 2 2 2 1 2 2 1 1 0 1 2 2 2 3 3 4 5 5 6 6 6 6 7 8 8 7 7 7 7 9 8 6 7 7 7 7 7 8 9 8 11 14
0 2 3 2 2 2 2 2 1 0 1 2 1 2 2 3 4 5 5 5 5 5 6 6 7 8 7 7 7 7 7 6 6 6 6 7 7 7 7 8 8 8 8 10
1 2 3 3 2 1 1 1 1 2 2 2 3 3 4 4 4 5 5 4 4 6 7 7 8 8 7 7 7 6 6 10 9 7 7 7 7 7 7 7 7 7 8 8
3 2 2 2 2 2 2 2 2 3 3 3 4 4 4 4 4 5 5 5 5 6 7 7 8 8 7 7 6 6 6 8 11 8 7 7 7 7 7 7 7 7 8 10
3 3 4 4 3 3 2 2 2 2 3 4 4 3 3 3 5 6 6 6 6 6 6 6 7 7 7 7 6 5 6 6 6 6 7 7 7 6 6 7 8 8 8 10
1 1 1 2 2 2 2 2 2 3 3 3 3 3 4 4 5 5 5 5 6 7 7 7 11 8 7 8 9 5 6 6 7 6 7 9 9 6 6 7 7 7 8 8
2 2 2 1 0 1 2 2 2 2 3 2 2 3 4 4 4 5 5 5 5 6 7 9 8 7 7 8 9 5 5 6 6 6 6 6 7 7 7 7 7 7 7 7
1 1 1 1 1 1 1 2 2 3 3 2 2 4 5 5 4 4 4 5 6 6 7 10 7 6 7 7 8 4 5 6 6 6 6 6 7 7 7 7 7 8 7 7
1 1 0 0 1 2 2 2 2 2 3 3 3 3 4 5 5 5 5 5 6 9 7 5 5 9 10 9 4 4 5 6 6 6 6 6 7 7 7 7 7 7 7 7
0 1 1 1 1 2 2 2 2 2 3 3 4 4 4 4 4 4 5 5 5 9 7 5 9 14 13 6 4 4 5 6 6 6 6 6 7 7 7 7 7 7 7 7
0 0 1 1 1 1 2 3 3 2 3 4 4 4 4 4 4 3 4 8 10 10 6 9 14 13 12 5 5 5 6 6 6 6 6 6 6 6 6 7 7 7 7 8
0 1 1 1 1 2 3 3 3 3 3 3 4 4 3 3 4 5 5 6 9 9 6 9 13 13 8 5 5 6 6 6 7 6 5 6 6 6 7 7 7 7 7 7
0 1 1 2 2 2 2 2 2 3 3 4 4 4 3 3 4 4 4 5 6 9 7 6 7 8 6 6 6 6 6 7 7 6 6 6 7 7 7 7 8 7 7 7
1 1 1 1 2 2 2 2 2 3 3 4 5 4 4 4 4 4 4 4 5 6 5 6 6 6 6 6 6 6 6 6 6 6 6 6 6 6 7 8 7 7 7 8
Wind_Direction
258 261 230 232 232 208 208 212 219 240 239 253 236 226 234 238 241 248 263 265 261 271 285 297 303 304 303 299 299 301 301 300 297 295 291 291 294 296 297 297 298 298 299 300
284 271 254 260 251 234 232 231 238 256 266 259 241 213 237 240 237 251 265 270 276 287 296 297 296 299 303 301 301 302 298 298 300 300 295 293 296 297 298 297 297 298 297 297
267 320 341 269 242 215 210 212 204 232 244 238 226 232 237 245 240 251 268 280 285 289 288 289 289 292 293 294 301 303 300 302 304 304 300 294 297 300 298 297 297 297 297 297
257 17 248 248 216 183 198 243 222 227 243 224 219 241 260 226 216 254 276 280 284 286 293 296 295 296 293 300 304 302 303 304 305 305 302 298 294 294 293 295 294 294 297 296
180 245 272 286 241 169 190 267 233 217 232 235 147 17 309 252 211 241 265 271 274 281 290 296 299 302 303 303 304 307 307 306 304 301 299 297 293 291 291 293 293 294 295 295
172 213 247 249 208 149 103 280 243 194 213 208 125 275 271 271 284 285 293 298 302 307 309 307 305 308 307 306 308 306 304 302 303 301 295 289 288 288 289 290 290 296 297 295
202 229 260 249 197 124 168 249 216 186 200 182 194 217 231 265 292 286 299 309 316 318 315 309 312 316 311 311 307 305 308 308 308 304 297 285 283 286 289 291 292 293 295 296
181 213 250 196 141 180 212 192 158 176 186 190 206 224 249 277 292 306 316 321 321 315 313 316 321 322 317 312 309 314 315 312 310 308 306 303 292 292 292 292 295 295 297 298
194 214 245 169 187 204 168 177 190 181 194 182 198 228 260 281 284 293 300 306 310 306 311 318 320 317 309 308 315 319 317 313 312 313 312 311 303 301 300 295 293 296 296 298
233 254 241 221 236 228 182 190 192 183 185 177 201 227 255 275 288 295 301 304 310 312 312 313 316 315 306 310 318 318 314 313 315 316 314 312 309 305 302 299 299 301 301 302
237 257 288 261 229 216 188 161 152 146 180 192 196 241 255 271 283 289 301 306 308 305 303 305 313 315 315 319 320 316 312 313 316 316 312 312 309 301 300 291 295 299 298 298
225 212 194 225 214 182 173 192 189 179 267 285 211 243 268 275 281 287 295 303 307 306 307 307 311 312 313 315 316 313 315 318 317 316 315 313 312 312 311 309 309 309 309 306
216 173 172 184 174 159 160 180 176 180 208 249 269 254 267 278 290 296 300 303 299 299 301 305 309 310 313 316 315 311 309 312 313 316 317 316 315 316 317 319 319 318 319 318
162 126 146 195 199 167 136 126 116 110 233 244 265 281 282 286 297 298 296 295 296 299 302 305 307 308 311 313 313 312 310 310 314 311 312 312 312 312 312 313 318 319 321 323
80 160 174 150 123 109 105 105 95 3 318 317 306 298 293 290 291 291 295 303 308 307 307 308 308 308 311 312 314 312 312 311 308 308 309 309 310 311 311 311 312 313 317 322
128 105 121 137 166 178 148 146 215 271 285 294 298 294 287 282 286 293 300 306 307 306 307 307 305 306 311 313 313 311 308 311 316 313 312 313 314 313 313 312 314 316 319 322
151 175 187 198 216 230 234 238 240 256 272 279 280 286 290 295 300 301 302 302 293 290 294 297 301 306 307 306 305 305 303 308 315 316 311 311 311 311 311 312 313 315 315 318
195 197 193 195 208 225 249 257 256 262 263 269 284 289 290 294 295 299 303 309 311 308 304 301 302 305 305 308 306 302 301 303 307 309 310 311 309 309 312 313 314 314 315 319
103 132 151 179 201 204 225 249 263 267 273 275 277 279 281 282 286 292 299 306 309 310 311 310 318 323 314 311 316 304 305 307 309 308 308 310 315 314 313 312 312 312 313 316
78 86 93 79 67 195 242 263 269 279 284 276 276 287 295 295 294 295 296 291 282 280 292 305 315 314 309 307 314 308 308 308 308 309 310 310 311 312 311 311 312 312 312 312
119 104 98 72 353 308 269 264 267 278 286 281 271 279 286 294 294 291 294 299 297 297 305 317 322 311 306 309 316 318 317 315 312 310 309 309 309 309 310 311 311 310 310 310
159 150 178 278 309 309 304 292 271 272 282 287 287 290 297 302 303 298 280 275 295 313 319 309 308 310 318 324 326 321 315 312 310 307 306 307 307 308 309 311 310 309 309 308
199 196 232 263 271 286 303 300 283 276 279 286 290 291 289 289 290 295 303 303 306 314 321 307 313 320 328 338 327 316 312 310 308 306 304 303 304 305 307 307 307 308 309 309
214 258 271 284 297 303 301 299 298 291 282 282 282 282 288 296 295 276 279 308 319 320 318 316 324 328 336 339 321 314 310 308 306 303 303 305 307 307 306 306 307 308 307 307
256 258 269 290 291 282 282 297 311 311 307 304 300 296 288 275 278 295 299 302 315 323 318 320 325 329 331 315 313 310 307 304 303 307 311 311 309 308 307 307 307 307 306 304
303 281 274 268 268 278 291 302 306 307 310 311 309 302 300 297 291 295 300 303 306 319 320 311 311 317 315 310 307 306 304 307 312 313 308 306 306 306 305 305 305 303 303 303
345 327 318 313 311 306 303 302 298 301 302 299 300 306 311 312 310 309 307 309 311 313 311 311 311 310 309 308 306 305 304 304 304 305 305 303 302 301 303 302 303 303 303 303
Height
1535 1533 1533 1533 1532 1534 1535 1534 1536 1529 1529 1523 1523 1523 1523 1523 1523 1522 1522 1521 1520 1518 1516 1514 1512 1510 1508 1505 1503 1500 1497 1494 1491 1488 1485 1482 1480 1477 1475 1473 1470 1467 1465 1462
1536 1532 1533 1531 1528 1528 1528 1529 1529 1527 1525 1519 1520 1520 1520 1520 1520 1520 1519 1518 1517 1515 1513 1511 1509 1506 1504 1501 1498 1495 1492 1489 1486 1483 1480 1478 1475 1472 1469 1467 1465 1462 1459 1457
1538 1535 1531 1530 1523 1523 1525 1523 1524 1524 1520 1518 1518 1518 1518 1518 1518 1517 1516 1515 1514 1512 1510 1508 1505 1503 1500 1497 1494 1491 1488 1485 1482 1479 1476 1473 1470 1467 1464 1462 1459 1456 1454 1451
1540 1539 1537 1521 1519 1518 1520 1520 1520 1518 1517 1516 1516 1516 1516 1516 1516 1514 1514 1512 1510 1508 1506 1504 1501 1499 1496 1493 1490 1486 1483 1480 1477 1474 1471 1468 1465 1462 1459 1457 1454 1451 1448 1446
1541 1541 1530 1521 1517 1518 1520 1519 1516 1516 1515 1515 1515 1515 1514 1514 1513 1512 1511 1509 1507 1505 1503 1500 1497 1494 1491 1488 1485 1482 1478 1475 1472 1469 1466 1462 1459 1457 1454 1451 1448 1446 1443 1441
1540 1537 1528 1517 1516 1515 1518 1520 1512 1512 1512 1513 1514 1517 1514 1511 1511 1510 1508 1506 1504 1502 1499 1496 1494 1491 1487 1484 1480 1477 1474 1471 1467 1464 1460 1457 1454 1452 1449 1446 1443 1441 1438 1436
1536 1534 1522 1515 1514 1515 1522 1514 1510 1509 1509 1511 1511 1512 1511 1509 1508 1507 1505 1503 1501 1499 1496 1493 1490 1487 1483 1479 1476 1473 1470 1466 1462 1459 1455 1452 1450 1447 1444 1442 1439 1436 1433 1431
1531 1531 1521 1511 1512 1514 1510 1507 1507 1507 1508 1508 1508 1508 1507 1507 1506 1504 1502 1500 1498 1495 1492 1490 1487 1483 1479 1476 1473 1469 1466 1462 1458 1454 1451 1448 1445 1442 1440 1437 1434 1431 1428 1426
1517 1513 1507 1506 1505 1505 1506 1506 1506 1506 1506 1506 1506 1505 1505 1504 1503 1501 1500 1497 1495 1492 1489 1486 1483 1480 1476 1473 1469 1465 1461 1458 1454 1450 1447 1444 1441 1438 1435 1433 1430 1427 1424 1422
1512 1506 1504 1504 1504 1504 1504 1504 1504 1504 1504 1504 1504 1503 1502 1501 1500 1499 1497 1494 1492 1489 1486 1483 1480 1477 1473 1469 1465 1462 1458 1454 1450 1447 1443 1440 1437 1434 1431 1428 1425 1423 1421 1418
1507 1504 1503 1501 1501 1501 1502 1502 1502 1502 1502 1502 1501 1500 1500 1498 1497 1495 1493 1491 1489 1486 1482 1479 1476 1473 1470 1466 1462 1458 1454 1450 1447 1443 1439 1436 1433 1430 1427 1425 1423 1420 1418 1416
1500 1498 1499 1499 1499 1499 1499 1499 1500 1500 1499 1499 1498 1497 1496 1495 1494 1492 1490 1488 1485 1482 1479 1476 1473 1470 1467 1463 1459 1455 1451 1447 1444 1440 1436 1433 1429 1426 1423 1422 1419 1417 1415 1413
1494 1495 1496 1496 1497 1497 1497 1497 1497 1497 1496 1496 1495 1495 1493 1492 1490 1489 1487 1484 1481 1478 1476 1473 1469 1466 1463 1459 1456 1452 1448 1445 1441 1437 1434 1430 1426 1423 1419 1417 1415 1413 1411 1408
1493 1494 1494 1494 1495 1495 1495 1495 1495 1494 1494 1493 1492 1491 1490 1489 1487 1485 1483 1480 1478 1475 1472 1469 1466 1463 1460 1456 1453 1449 1446 1442 1439 1435 1432 1428 1425 1421 1418 1414 1411 1408 1406 1404
1491 1492 1492 1492 1492 1493 1493 1492 1492 1491 1491 1490 1489 1488 1487 1485 1483 1481 1479 1477 1474 1471 1469 1466 1462 1459 1457 1453 1450 1446 1443 1440 1436 1433 1430 1427 1423 1420 1417 1413 1410 1406 1403 1400
1489 1490 1490 1490 1490 1490 1490 1490 1489 1489 1488 1487 1486 1485 1484 1482 1480 1478 1476 1473 1470 1467 1465 1462 1459 1456 1453 1450 1447 1443 1440 1438 1435 1431 1428 1424 1421 1418 1414 1411 1408 1405 1401 1398
1487 1487 1488 1488 1488 1488 1488 1487 1487 1486 1486 1485 1484 1482 1481 1479 1476 1474 1472 1470 1467 1464 1462 1459 1456 1453 1450 1447 1444 1441 1438 1435 1432 1428 1425 1422 1419 1415 1413 1409 1406 1402 1399 1397
1486 1486 1486 1486 1486 1485 1485 1485 1485 1484 1483 1482 1481 1479 1477 1475 1473 1471 1468 1466 1464 1461 1459 1456 1453 1450 1447 1444 1441 1438 1435 1432 1429 1426 1423 1420 1416 1414 1410 1407 1403 1400 1397 1395
1484 1484 1484 1484 1484 1484 1483 1483 1482 1481 1480 1479 1478 1476 1474 1472 1470 1467 1465 1462 1460 1457 1455 1453 1450 1447 1445 1442 1439 1436 1432 1429 1426 1423 1420 1417 1414 1411 1408 1404 1401 1398 1395 1392
1483 1483 1483 1483 1483 1482 1481 1480 1480 1479 1478 1476 1475 1473 1471 1469 1467 1464 1462 1459 1457 1454 1452 1449 1447 1444 1441 1439 1436 1433 1430 1427 1424 1420 1417 1414 1411 1408 1405 1402 1399 1396 1393 1391
1482 1482 1482 1481 1481 1480 1479 1478 1477 1476 1475 1473 1471 1469 1467 1465 1463 1461 1458 1456 1454 1451 1449 1446 1444 1441 1438 1436 1433 1430 1427 1424 1421 1417 1414 1411 1408 1405 1402 1399 1397 1394 1391 1388
1480 1480 1480 1479 1479 1478 1477 1476 1475 1473 1472 1470 1468 1466 1464 1462 1460 1458 1455 1453 1450 1448 1446 1443 1440 1438 1436 1433 1430 1427 1423 1420 1417 1414 1411 1408 1405 1402 1399 1397 1394 1391 1388 1386
1479 1479 1478 1477 1477 1476 1474 1473 1472 1471 1469 1467 1466 1463 1461 1459 1457 1454 1452 1450 1447 1445 1443 1440 1437 1435 1433 1429 1426 1423 1420 1417 1414 1411 1408 1405 1402 1399 1397 1394 1391 1388 1385 1383
1477 1477 1476 1476 1475 1473 1472 1471 1469 1468 1466 1465 1463 1461 1458 1456 1454 1452 1449 1447 1445 1442 1439 1437 1434 1432 1429 1425 1423 1420 1417 1414 1411 1408 1405 1402 1399 1397 1394 1391 1388 1385 1383 1380
1476 1475 1474 1473 1472 1471 1469 1468 1467 1465 1464 1462 1460 1458 1456 1454 1451 1449 1447 1444 1442 1439 1436 1434 1431 1428 1425 1422 1419 1416 1413 1411 1408 1405 1402 1399 1396 1393 1391 1388 1385 1382 1379 1377
1474 1473 1472 1471 1470 1468 1467 1466 1464 1462 1461 1459 1457 1455 1453 1451 1449 1446 1444 1441 1439 1436 1433 1431 1428 1425 1422 1419 1416 1413 1410 1407 1405 1402 1399 1396 1393 1390 1387 1385 1382 1379 1376 1374
1471 1470 1470 1469 1467 1466 1465 1463 1462 1460 1458 1456 1454 1453 1450 1448 1446 1443 1441 1439 1436 1434 1431 1428 1425 1422 1419 1416 1413 1410 1407 1404 1401 1398 1395 1392 1389 1387 1384 1381 1379 1376 1373 1371